[[{"header":{"parameterUnit":"m.s-1","parameterCategory":1,"la1":30.2991,"la2":30.254,"lo1":-89.0895,"lo2":-89.0444,"dy":0.0017,"dx":0.0017,"nx":28,"ny":28,"refTime":"2025-03-12T09:00:00:Z","depth":0,"parameterNumber":2,"parameterNumberName":"U-component_of_WINDS"},"data":[0,0,0,0,0,0,0,0,0,0,0,0,0,0,0,0,0,0,0,0,0,0,0,0,0,0,0,0,0,0,0,0,0,0,0,0,0,0,0,0,0,0,0,0,0,0,0,0,0,0,0,0,0,0,0,0,0,0,0.7096,0.7096,0,0.7099,0.7099,0.7099,0.7054,0.7053,0.7052,0.7051,0.7053,0.7055,0.7056,0,0,0,0,0,0,0,0,0,0,0,0,0,0.7049,0.705,0.7096,0.7096,0.7096,0.7099,0.7099,0.7099,0.7054,0.7053,0.7052,0.705,0.7053,0.7054,0.7056,0,0,0,0,0,0,0,0,0,0,0,0,0,0.7063,0.7051,0.7096,0.7074,0.7072,0.7099,0.7099,0.7099,0.7055,0.7053,0.7051,0.7049,0.7052,0.7054,0.7056,0.7103,0,0,0.7061,0.7062,0,0,0,0,0,0,0,0,0.7062,0.7064,0.7077,0.7076,0.7073,0.7074,0.7083,0.71,0.7055,0.7061,0.7051,0.7049,0.7062,0.7063,0.7067,0.7103,0.7103,0.7062,0.7063,0.7063,0.7064,0,0,0,0,0,0,0,0.7061,0.7064,0.7097,0.7077,0.7075,0.7063,0.7063,0.7086,0.7072,0.7061,0.7057,0.7058,0.706,0.7066,0.7067,0.7103,0.7062,0.7063,0.7064,0.7065,0.7174,0.7176,0,0,0,0,0,0,0.7063,0.7063,0.7097,0.7097,0.7063,0.7066,0.7065,0.7076,0.7071,0.7069,0.706,0.7056,0.7063,0.7065,0.7067,0.7119,0.7063,0.7065,0.7066,0.7172,0.7174,0.7176,0,0,0,0,0,0,0.7062,0.7067,0.7097,0.7079,0.7082,0.7068,0.708,0.7077,0.7082,0.7071,0.7068,0.7068,0.7062,0.7064,0.7093,0.7119,0.7066,0.7068,0.717,0.7173,0.7175,0.7226,0,0,0,0,0,0,0.7061,0.7067,0.7085,0.708,0.7083,0.7124,0.7082,0.7078,0.7085,0.708,0.7078,0.7075,0.7061,0.7091,0.7095,0.712,0.7069,0.7168,0.7171,0.7174,0.7222,0.723,0.7237,0,0,0,0,0,0.706,0.71,0.7087,0.7091,0.7107,0.7126,0.7128,0.711,0.7087,0.7105,0.7097,0.7075,0.7115,0.7094,0.7099,0.7125,0.7166,0.717,0.7174,0.7218,0.7228,0.7237,0,0,0,0,0,0,0.711,0.7099,0.7084,0.7124,0.7126,0.7119,0.7141,0.7122,0.7131,0.7126,0.7103,0.7103,0.7135,0.7133,0.711,0.7168,0.7136,0.7142,0.7168,0.7178,0.7185,0.7185,0.707,0,0,0,0,0,0.7126,0.7143,0.7132,0.7169,0.717,0.7155,0.7163,0.7149,0.7151,0.7151,0.7146,0.7147,0.716,0.7169,0.718,0.7221,0.7218,0.724,0.7248,0.7254,0.7259,0.7277,0.7286,0.719,0.719,0.719,0,0,0.7159,0.7155,0.7167,0.7179,0.7179,0.7195,0.7157,0.7177,0.7189,0.7154,0.7181,0.7177,0.7177,0.7211,0.7226,0.721,0.7284,0.7259,0.7264,0.7266,0.7282,0.7291,0.7299,0.7193,0.7192,0.7192,0,0,0.7226,0.7226,0.7255,0.7255,0.7255,0.7244,0.7251,0.7245,0.724,0.7267,0.724,0.7253,0.7276,0.7276,0.7279,0.7343,0.7322,0.7347,0.7386,0.7404,0.7412,0.7418,0.7439,0.7447,0.7352,0.7352,0.7352,0,0.7267,0.7292,0.7272,0.7293,0.7298,0.7266,0.7293,0.7295,0.7298,0.7302,0.7283,0.7309,0.7307,0.7339,0.7354,0.7359,0.7364,0.7348,0.7413,0.7419,0.7425,0.7444,0.7452,0.7355,0.7355,0.7354,0.7354,0,0.7341,0.7359,0.7381,0.7384,0.7391,0.7416,0.7398,0.7408,0.7392,0.7382,0.7408,0.7404,0.7412,0.7419,0.7405,0.7448,0.7438,0.7417,0.7384,0.7437,0.7455,0.7462,0.7359,0.7358,0.7357,0.7357,0,0,0.7443,0.7431,0.744,0.7439,0.7435,0.7448,0.7469,0.7477,0.7484,0.7487,0.7503,0.7521,0.75,0.7504,0.7489,0.7505,0.7552,0.7481,0.7481,0.7493,0.7597,0.7612,0.7621,0.7538,0.7539,0.7541,0.7596,0,0.7507,0.7544,0.7524,0.7563,0.7577,0.7545,0.7564,0.7562,0.7553,0.7563,0.7553,0.7565,0.7538,0.7539,0.7554,0.7544,0.7572,0.7539,0.7551,0.7552,0.7551,0.763,0.7647,0.77,0.7603,0.7604,0.7605,0,0.7587,0.7592,0.7632,0.7621,0.7626,0.7643,0.7646,0.7657,0.7654,0.7646,0.7648,0.7628,0.7646,0.7615,0.7638,0.7616,0.762,0.7615,0.7616,0.7616,0.7581,0.7631,0.7716,0.7724,0.7616,0.7615,0.7614,0,0.7655,0.7671,0.7695,0.7696,0.7685,0.7697,0.7694,0.7688,0.7693,0.7695,0.7697,0.7702,0.7705,0.7708,0.7689,0.7669,0.7715,0.7682,0.7707,0.7708,0.7718,0.7718,0.7804,0.7723,0.7723,0.7723,0.7722,0,0.7728,0.7753,0.7725,0.774,0.7766,0.7743,0.7769,0.7762,0.7756,0.7768,0.7742,0.7753,0.7728,0.7737,0.7722,0.7742,0.7744,0.7737,0.7733,0.7739,0.7739,0.774,0.7735,0.7725,0.7724,0.7724,0.7723,0,0.7807,0.779,0.7814,0.7801,0.7798,0.7818,0.7806,0.7819,0.7807,0.7822,0.7824,0.7805,0.7814,0.7795,0.7801,0.7791,0.7819,0.781,0.7821,0.7817,0.7842,0.7839,0.7931,0.7941,0.7855,0.7856,0.7857,0,0.7855,0.7873,0.786,0.7866,0.7863,0.7874,0.7877,0.7854,0.7859,0.7854,0.7867,0.7872,0.7876,0.789,0.7876,0.788,0.7869,0.7901,0.787,0.7874,0.7867,0.7866,0.7866,0.7908,0.7909,0.791,0.791,0,0.7939,0.7929,0.7935,0.7938,0.7942,0.7943,0.7942,0.7949,0.7923,0.793,0.7937,0.794,0.7945,0.795,0.795,0.7944,0.7922,0.792,0.7926,0.7932,0.7936,0.7932,0.7836,0.7918,0.7917,0.7917,0.7916,0.7916,0.8003,0.8016,0.8008,0.8015,0.8012,0.8011,0.8021,0.8009,0.8015,0.8017,0.8003,0.8013,0.8005,0.8003,0.7999,0.8006,0.7991,0.8,0.8002,0.8004,0.8007,0.7936,0.8006,0.8006,0.8005,0.8005,0.8005,0,0.8084,0.8077,0.8083,0.8082,0.8086,0.8065,0.8062,0.8067,0.8076,0.8071,0.8074,0.8081,0.8086,0.8071,0.8073,0.8081,0.807,0.8082,0.808,0.8079,0.8021,0.8015,0.809,0.809,0.809,0.809,0.809,0.809,0.8127,0.8147,0.8135,0.8152,0.8145,0.8154,0.8154,0.8152,0.8147,0.8156,0.8159,0.815,0.814,0.814,0.8142,0.8138,0.8139,0.8153,0.8145,0.8091,0.8083,0.8075,0.8069,0.8154,0.8154,0.8202,0.8202,0.8202]},{"header":{"parameterUnit":"m.s-1","parameterCategory":1,"la1":30.2991,"la2":30.254,"lo1":-89.0895,"lo2":-89.0444,"dy":0.0017,"dx":0.0017,"nx":28,"ny":28,"refTime":"2025-03-12T09:00:00:Z","depth":0,"parameterNumber":3,"parameterNumberName":"V-component_of_WINDS"},"data":[0,0,0,0,0,0,0,0,0,0,0,0,0,0,0,0,0,0,0,0,0,0,0,0,0,0,0,0,0,0,0,0,0,0,0,0,0,0,0,0,0,0,0,0,0,0,0,0,0,0,0,0,0,0,0,0,0,0,4.5382,4.5382,0,4.5418,4.5419,4.5419,4.5366,4.5364,4.5362,4.5361,4.5396,4.5398,4.5401,0,0,0,0,0,0,0,0,0,0,0,0,0,4.5262,4.5264,4.5382,4.5382,4.5383,4.5418,4.5419,4.5419,4.5366,4.5364,4.5362,4.536,4.5395,4.5398,4.5401,0,0,0,0,0,0,0,0,0,0,0,0,0,4.5308,4.5265,4.5382,4.5361,4.5359,4.5418,4.5419,4.5419,4.5367,4.5364,4.5361,4.5359,4.5394,4.5397,4.5401,4.5482,0,0,4.5414,4.5415,0,0,0,0,0,0,0,0,4.5305,4.5312,4.5363,4.5362,4.5361,4.5385,4.5389,4.544,4.5368,4.5364,4.5361,4.5357,4.5394,4.5398,4.5411,4.5483,4.5485,4.5414,4.5416,4.5418,4.5419,0,0,0,0,0,0,0,4.5302,4.531,4.5396,4.5364,4.5362,4.5348,4.5351,4.5399,4.5394,4.5364,4.536,4.5365,4.5393,4.5407,4.5411,4.5485,4.5414,4.5417,4.542,4.5421,4.5623,4.5626,0,0,0,0,0,0,4.5302,4.5308,4.5395,4.5397,4.5326,4.5352,4.5356,4.538,4.5393,4.5393,4.5368,4.5363,4.5402,4.5407,4.5412,4.5506,4.5418,4.5422,4.5424,4.562,4.5624,4.5627,0,0,0,0,0,0,4.53,4.531,4.5393,4.5352,4.5361,4.5357,4.5384,4.5382,4.5396,4.5396,4.5395,4.5384,4.54,4.5407,4.5464,4.5506,4.5424,4.5427,4.5617,4.5621,4.5625,4.5694,0,0,0,0,0,0,4.5296,4.531,4.5342,4.5353,4.5364,4.5447,4.5387,4.5385,4.5404,4.5397,4.5411,4.541,4.5398,4.5459,4.5468,4.551,4.543,4.5613,4.5619,4.5624,4.5688,4.5701,4.5711,0,0,0,0,0,4.5292,4.536,4.5343,4.5354,4.5403,4.5449,4.5455,4.5441,4.5407,4.5438,4.5438,4.541,4.55,4.5465,4.5476,4.5519,4.561,4.5617,4.5624,4.5683,4.5698,4.5711,0,0,0,0,0,0,4.5353,4.5361,4.5343,4.5416,4.5432,4.544,4.5479,4.5457,4.5483,4.5476,4.5456,4.5459,4.5521,4.5526,4.5487,4.5596,4.5549,4.5558,4.5591,4.5605,4.5617,4.5614,4.5434,0,0,0,0,0,4.5375,4.5413,4.5417,4.5481,4.549,4.5483,4.5503,4.549,4.5506,4.5512,4.5516,4.5532,4.5563,4.5584,4.5614,4.5689,4.569,4.5723,4.5735,4.5744,4.5752,4.579,4.5805,4.5649,4.5649,4.5649,0,0,4.5421,4.543,4.5455,4.5493,4.5505,4.5542,4.549,4.5533,4.556,4.5518,4.5573,4.5577,4.5592,4.5659,4.5688,4.5664,4.5795,4.5753,4.576,4.5763,4.5798,4.5813,4.5826,4.5653,4.5653,4.5652,0,0,4.5523,4.5535,4.5588,4.56,4.5618,4.5612,4.5625,4.5636,4.5636,4.5691,4.566,4.5692,4.5747,4.5759,4.5773,4.5877,4.5851,4.5887,4.5946,4.5984,4.5996,4.6007,4.6042,4.6056,4.5895,4.5895,4.5895,0,4.5578,4.5635,4.5618,4.5663,4.568,4.5644,4.5697,4.5709,4.5735,4.5747,4.572,4.5787,4.5796,4.5863,4.5889,4.5901,4.5914,4.5885,4.5996,4.6006,4.6016,4.605,4.6064,4.5899,4.5899,4.5898,4.5898,0,4.57,4.574,4.5781,4.5807,4.5829,4.5877,4.5866,4.5889,4.5874,4.5871,4.5926,4.5934,4.5963,4.5978,4.5964,4.6043,4.6028,4.5999,4.5951,4.6035,4.6067,4.608,4.5905,4.5904,4.5902,4.5901,0,0,4.5844,4.5859,4.5874,4.5884,4.5899,4.5929,4.5975,4.6004,4.6024,4.6042,4.6079,4.6126,4.6098,4.6113,4.6099,4.6132,4.6212,4.6098,4.6098,4.6118,4.6298,4.632,4.6336,4.6195,4.6198,4.62,4.6297,0,4.5946,4.6026,4.6011,4.6088,4.6124,4.6088,4.6128,4.6141,4.6138,4.6167,4.6164,4.6197,4.6159,4.6167,4.6198,4.6196,4.6248,4.6189,4.6228,4.623,4.6225,4.6352,4.6376,4.6467,4.6309,4.6311,4.6313,0,4.6076,4.6098,4.618,4.6187,4.6201,4.6237,4.6261,4.629,4.6302,4.6298,4.6314,4.6293,4.6337,4.6289,4.6348,4.6308,4.6323,4.6324,4.6327,4.633,4.6276,4.6358,4.6496,4.6509,4.6332,4.6331,4.6329,0,4.6171,4.6222,4.6276,4.6286,4.6297,4.6322,4.6328,4.6338,4.6356,4.6376,4.6387,4.6412,4.6426,4.6446,4.6432,4.6398,4.6492,4.6443,4.6489,4.6489,4.651,4.6509,4.6652,4.6521,4.6521,4.6521,4.652,0,4.6286,4.6336,4.6319,4.6353,4.6407,4.6388,4.6443,4.6444,4.6453,4.6484,4.6455,4.6486,4.6466,4.6494,4.6483,4.6532,4.6539,4.6536,4.6532,4.6538,4.6539,4.6548,4.6541,4.6524,4.6524,4.6523,4.6522,0,4.6402,4.6392,4.6449,4.6454,4.6456,4.6496,4.6499,4.6529,4.6524,4.6565,4.6573,4.6565,4.6596,4.6584,4.6618,4.661,4.6673,4.6662,4.6669,4.6666,4.6712,4.6707,4.6865,4.6884,4.6742,4.6743,4.6744,0,4.6476,4.6514,4.6522,4.6541,4.6548,4.658,4.6598,4.6579,4.6598,4.6614,4.6642,4.6671,4.6694,4.6745,4.6741,4.6766,4.6755,4.6808,4.6758,4.6762,4.6754,4.6752,4.6755,4.6818,4.682,4.6821,4.6822,0,4.6607,4.66,4.6627,4.6651,4.6673,4.6691,4.6706,4.6724,4.6706,4.6728,4.676,4.6777,4.6811,4.6839,4.6861,4.6865,4.6841,4.6838,4.685,4.6856,4.6858,4.6856,4.6696,4.6834,4.6833,4.6832,4.6832,4.6831,4.6704,4.6735,4.6745,4.6775,4.6784,4.6799,4.6827,4.6825,4.6851,4.6877,4.6864,4.6901,4.691,4.6937,4.6944,4.6971,4.695,4.6968,4.6972,4.6976,4.6982,4.6854,4.6975,4.6975,4.6974,4.6974,4.6974,0,4.6833,4.6837,4.6865,4.6887,4.691,4.6884,4.6899,4.692,4.6953,4.6964,4.6985,4.7021,4.7048,4.7045,4.707,4.7092,4.7081,4.7099,4.7097,4.7098,4.7,4.6987,4.7107,4.7107,4.7107,4.7107,4.7107,4.7107,4.6903,4.6954,4.6947,4.7002,4.7005,4.7041,4.7051,4.7064,4.7072,4.7113,4.7135,4.7133,4.7138,4.7162,4.7185,4.7184,4.7194,4.7216,4.721,4.7118,4.7105,4.7092,4.708,4.7218,4.7218,4.7306,4.7307,4.7307]}]]